loading
|
Showing default

YAOGAN-43 02B, 60946

Orbit data source: Space-Track

YAOGAN-43 02B, 60946 is a payload satellite owned by PLA GAD (CN) in LEO that was launched on Tue, 03 Sep 2024 UTC via a CHANG ZHENG 4B launch vehicle from the Xichang Space Center, China (XSC). Payloads include a variety of satellites, spacecraft, and rockets equipped with specific instruments for various scientific and technological missions. These include communications satellites like Starlink; space stations such as the ISS; scientific satellites like the Hubble; Earth observation satellites from companies like Planet Labs, Umbra, and HawkEye 360; GPS; miniature CubeSats for education and research; and military/defense satellites.

Loading next visibility...
Loading greatness...
YAOGAN-43 02B details
Identifier
60946, 2024-156B
Orbit
LEO
Last TLE update13 hours ago
Origin
Flag of CNPLA GAD (CN / PRC)
ManufacturerSAST
Mission statusOperational
MissionUnknown
Bus & MotorUnknown
Mass~300 kg wet, ~300 kg dry
Launch date (UTC)
2024-09-03 (2 weeks ago)
Launch vehicle
CHANG ZHENG 4B
Launch site
Xichang Space Center, China (XSC)
Object type
Payload
Rocket body
Debris
Radar Cross SectionMedium (>0.1 m² and <1 m²)

Expand to show TLE details & history

TLE from 13 hours ago
0 YAOGAN-43 02B
1 60946U 24156B   24258.69954360  .00041929  00000-0  16585-2 0  9998
2 60946  34.9966 266.4969 0008787   3.0035 357.0732 15.24424123  1733
Epoch: 2024-09-14T16:47Z
Definitive object data (Epoch: 2024-09-14T16:47:20.567Z)
Latitude0.00002°
Longitude20.50772°
Altitude485.393 km
Speed7.628 km/s
True Right ascension17h 45m 59s
True Declination0° 00' 00"
Sunlit
Object was in daylight at TLE epoch
Predictive object data (real-time)
Latitude22.33219°
Longitude52.85515°
Altitude486.047 km
Speed7.629 km/s
Apparent Right ascension16h 35m 05s
Apparent Declination-22° 32' 56"
Sunlit
Object is in full shadow
Predictive observer data (real-time)
Local Sidereal Time22:10:48
Azimuth248.768° W
Elevation-9.854°
Doppler factor1
Orbital elements
Apogee501.808 km
Perigee489.728 km
Semi-major axis6,873.905 km
Eccentricity0.0008787
Inclination34.9966°
RAAN266.4969°
Arg. of periapsis3.0035°
True anomaly357.06805°
Mean anomaly357.0732°
Eccentric anomaly357.07063°
Mean motion3.80836 °/min
BSTAR0.0016585
Period94.53 mins
No data available

YAOGAN-43 02B Visibility forecast

Observer location: 39.9160978°, -105.1181434

YAOGAN-43 02B is not visible in the next 10 days
Span
Click to sort rows by Start time (UTC) header in descending order
Start Az.
Max El. time (UTC)
Max El. Az.
Max El.
End time (UTC)
End Az.